Location: Kaltenbach
(49.2000°N, 7.7500°E)
Time: 19:29:08
(UTC+00:00)

YAOGAN 6 - Pass Details

Date: 24 January 2020
Orbit: 465 x 506 km, 97.0° (Epoch: 16 February)

Event Time Altitude Azimuth Distance (km) Brightness Sun altitude
Rises 16:43:31 0° 143° (SE) 2,590 6.1 -5.5°
Reaches altitude 10° 16:45:44 10° 134° (SE) 1,707 5.1 -5.8°
Maximum altitude 16:49:02 33° 70° (ENE) 867 3.3 -6.3°
Drops below altitude 10° 16:52:21 10° 5° (N) 1,702 5.1 -6.8°
Sets 16:54:33 0° 356° (N) 2,582 6.1 -7.2°
